This demonstration page uses our WeatherBlox Daily Observations layout. Learn more.

Left ArrowRight Arrow

39.08367, -84.50855

Hourly Observations for May 2, 2022

Temp ( °F °C ) Dew Point ( °F °C ) Humidity (%) Winds ( mph kmh ) Pressure ( in mb ) Visibility ( mi km ) Precip ( " mm )
12:53 am 00:53 Clear 55 12.8 46 7.8 72 72 NW 5 7 30.02 1017 10 16 0.00 0.00
1:53 am 01:53 Clear 48 8.9 46 7.8 93 93 ESE 3 6 30.02 1017 10 16 0.00 0.00
2:53 am 02:53 Clear 49 9.4 47 8.3 93 93 Calm 30.02 1017 10 16 0.00 0.00
3:53 am 03:53 Clear 46 7.8 46 7.8 100 100 Calm 30.03 1017 10 16 0.00 0.00
4:53 am 04:53 Clear 45 7.2 45 7.2 100 100 Calm 30.05 1018 10 16 0.00 0.00
5:07 am 05:07 Clear with Mist and Fog 45 7.2 45 7.2 100 100 Calm 30.07 1018 2 2 0.00 0.00
5:16 am 05:16 Clear with Fog 45 7.2 45 7.2 100 100 Calm 30.07 1018 1 1 0.00 0.00
5:23 am 05:23 Clear with Mist and Fog 45 7.2 45 7.2 100 100 Calm 30.07 1018 2 3 0.00 0.00
5:35 am 05:35 Clear 42 5.6 42 5.6 100 100 Calm 30.09 1019 10 16 0.00 0.00
5:45 am 05:45 Clear with Mist and Fog 45 7.2 45 7.2 100 100 Calm 30.07 1018 2 3 0.00 0.00
5:53 am 05:53 Clear with Mist and Fog 44 6.7 44 6.7 100 100 Calm 30.05 1018 2 3 0.00 0.00
6:14 am 06:14 Clear with Mist and Fog 44 6.7 44 6.7 100 100 Calm 30.08 1019 1 2 0.00 0.00
6:24 am 06:24 Clear 42 5.6 42 5.6 100 100 Calm 30.09 1019 8 13 0.00 0.00
6:32 am 06:32 Clear with Mist and Fog 42 5.6 42 5.6 100 100 Calm 30.10 1019 2 2 0.00 0.00
6:37 am 06:37 Clear with Fog 43 6.1 43 6.1 100 100 Calm 30.10 1019 0 0 0.00 0.00
6:53 am 06:53 Mostly Sunny 41 5 41 5 100 100 Calm 30.07 1018 10 16 0.00 0.00
7:53 am 07:53 Sunny 48 8.9 48 8.9 100 100 S 5 7 30.08 1019 8 13 0.00 0.00
8:53 am 08:53 Sunny 56 13.3 49 9.4 77 77 S 3 6 30.09 1019 10 16 0.00 0.00
9:53 am 09:53 Sunny 61 16.1 47 8.3 60 60 WNW 8 13 30.09 1019 10 16 0.00 0.00
10:53 am 10:53 Sunny 64 17.8 48 8.9 56 56 W 8 13 30.09 1019 10 16 0.00 0.00
11:53 am 11:53 Sunny 66 18.9 49 9.4 54 54 WSW 12 19 30.08 1019 10 16 0.00 0.00
12:53 pm 12:53 Sunny 69 20.6 49 9.4 49 49 Calm 30.07 1018 10 16 0.00 0.00
1:53 pm 13:53 Sunny 71 21.7 47 8.3 42 42 VRB 6 9 30.06 1018 10 16 0.00 0.00
2:53 pm 14:53 Sunny 74 23.3 47 8.3 38 38 WNW 13 20 30.05 1018 10 16 0.00 0.00
3:53 pm 15:53 Sunny 74 23.3 49 9.4 41 41 WSW 6 9 30.04 1017 10 16 0.00 0.00
4:53 pm 16:53 Sunny 73 22.8 47 8.3 40 40 WSW 5 7 30.04 1017 10 16 0.00 0.00
5:53 pm 17:53 Sunny 72 22.2 48 8.9 43 43 WNW 7 11 30.04 1017 10 16 0.00 0.00
6:53 pm 18:53 Sunny 69 20.6 56 13.3 63 63 SW 3 6 30.04 1017 10 16 0.00 0.00
7:53 pm 19:53 Sunny 67 19.4 55 12.8 66 66 Calm 30.02 1017 10 16 0.00 0.00
8:53 pm 20:53 Clear 61 16.1 54 12.2 78 78 Calm 30.01 1016 10 16 0.00 0.00
9:53 pm 21:53 Clear 57 13.9 53 11.7 87 87 Calm 30.02 1017 10 16 0.00 0.00
10:53 pm 22:53 Clear 56 13.3 51 10.6 84 84 Calm 30.04 1017 10 16 0.00 0.00
11:53 pm 23:53 Clear 56 13.3 53 11.7 90 90 Calm 30.02 1017 10 16 0.00 0.00

Powered by AerisWeather